Date,TemperatureHighF,TemperatureAvgF,TemperatureLowF,DewpointHighF,DewpointAvgF,DewpointLowF,HumidityHigh,HumidityAvg,HumidityLow,PressureMaxIn,PressureMinIn,WindSpeedMaxMPH,WindSpeedAvgMPH,GustSpeedMaxMPH,PrecipitationSumIn
2013-11-1,56,49,46,-100,-100,-100,0,0,100,0.00,40.00,0,-999,0,0.11
2013-11-2,53,48,42,-100,-100,-100,0,0,100,0.00,40.00,0,-999,0,0.00
2013-11-3,57,42,32,-100,-100,-100,0,0,100,0.00,40.00,0,-999,0,0.00
2013-11-4,60,52,46,-100,-100,-100,0,0,100,0.00,40.00,0,-999,0,0.00
2013-11-5,58,55,53,-100,-100,-100,0,0,100,0.00,40.00,0,-999,0,0.27
2013-11-6,59,52,45,-100,-100,-100,0,0,100,0.00,40.00,0,-999,0,0.65
2013-11-7,54,43,33,-100,-100,-100,0,0,100,0.00,40.00,0,-999,0,0.12
2013-11-8,55,46,32,-100,-100,-100,0,0,100,0.00,40.00,0,-999,0,0.00
2013-11-9,66,56,51,-100,-100,-100,0,0,100,0.00,40.00,0,-999,0,0.00
2013-11-10,54,45,38,-100,-100,-100,0,0,100,0.00,40.00,0,-999,0,0.00
2013-11-11,60,44,32,-100,-100,-100,0,0,100,0.00,40.00,0,-999,0,0.00
2013-11-12,34,30,23,-100,-100,-100,0,0,100,0.00,40.00,0,-999,0,0.00
2013-11-13,46,32,19,-100,-100,-100,0,0,100,0.00,40.00,0,-999,0,0.00
2013-11-14,57,42,33,-100,-100,-100,0,0,100,0.00,40.00,0,-999,0,0.00
2013-11-15,54,44,36,-100,-100,-100,0,0,100,0.00,40.00,0,-999,0,0.00
2013-11-16,64,56,48,-100,-100,-100,0,0,100,0.00,40.00,0,-999,0,0.06
2013-11-17,73,63,48,-100,-100,-100,0,0,100,0.00,40.00,0,-999,0,0.36
2013-11-18,53,44,33,-100,-100,-100,0,0,100,0.00,40.00,0,-999,0,0.01
2013-11-19,48,39,30,-100,-100,-100,0,0,100,0.00,40.00,0,-999,0,0.00
2013-11-20,44,39,35,-100,-100,-100,0,0,100,0.00,40.00,0,-999,0,0.13
2013-11-21,50,48,45,-100,-100,-100,0,0,100,0.00,40.00,0,-999,0,0.16
2013-11-22,43,37,32,-100,-100,-100,0,0,100,0.00,40.00,0,-999,0,0.02
2013-11-23,28,24,19,-100,-100,-100,0,0,100,0.00,40.00,0,-999,0,0.00
2013-11-24,30,21,13,-100,-100,-100,0,0,100,0.00,40.00,0,-999,0,0.00
2013-11-25,36,33,27,-100,-100,-100,0,0,100,0.00,40.00,0,-999,0,0.00
2013-11-26,36,30,23,-100,-100,-100,0,0,100,0.00,40.00,0,-999,0,0.00
2013-11-27,29,23,17,-100,-100,-100,0,0,100,0.00,40.00,0,-999,0,0.00
2013-11-28,42,30,20,-100,-100,-100,0,0,100,0.00,40.00,0,-999,0,0.00
2013-11-29,42,32,19,-100,-100,-100,0,0,100,0.00,40.00,0,-999,0,0.00
2013-11-30,55,37,28,-100,-100,-100,0,0,100,0.00,40.00,0,-999,0,0.00